Regional Weather Roundup
Issued by NWS Charleston, WV

Home | Current Version | Previous Version | Graphics & Text | Print | Product List | Glossary On
Versions: 1 2 3 4 5 6 7 8 9 10 11 12 13 14 15 16 17 18 19 20 21 22 23 24 25 26 27 28 29 30 31 32 33 34 35 36 37 38 39 40 41 42 43 44 45 46 47 48 49 50
000
ASUS41 KRLX 210310
RWRRLX
West Virginia Regional Weather Roundup
National Weather Service Charleston WV
1100 PM EDT MON APR 20 2015

Note: "fair" indicates few or no clouds below 12,000 feet with no
significant weather and/or obstructions to visibility.

WVZ003-210400-
Northern Panhandle of West Virginia

CITY           SKY/WX    TMP DP  RH WIND       PRES   REMARKS
WHEELING       NOT AVBL
$$

WVZ009-210400-
Northwest West Virginia

CITY           SKY/WX    TMP DP  RH WIND       PRES   REMARKS
PARKERSBURG    CLOUDY    53  49  86 W9        29.72R
$$

WVZ006-210400-
Western West Virginia

CITY           SKY/WX    TMP DP  RH WIND       PRES   REMARKS
HUNTINGTON     CLOUDY    54  46  74 W6        29.75R
$$

WVZ015-210400-
West Central West Virginia

CITY           SKY/WX    TMP DP  RH WIND       PRES   REMARKS
CHARLESTON     CLOUDY    56  42  59 W12G23    29.74R
$$

WVZ022-031-210400-
North Central West Virginia

CITY           SKY/WX    TMP DP  RH WIND       PRES   REMARKS
CLARKSBURG     RAIN      52  48  86 W16G26    29.67R
MORGANTOWN     LGT RAIN  54  46  74 VRB6G20   29.67R
$$

WVZ025-035-042-045-210400-
Southern West Virginia

CITY           SKY/WX    TMP DP  RH WIND       PRES   REMARKS
BECKLEY        LGT RAIN  51  47  86 NW7       29.74R
LOGAN          LGT RAIN  52  48  87 SW6       29.74R
BLUEFIELD      CLOUDY    53  47  79 VRB7G18   29.75R
LEWISBURG      RAIN      55  47  74 W8        29.72R
$$

WVZ047-210400-
Northern Mountains of West Virginia

CITY           SKY/WX    TMP DP  RH WIND       PRES   REMARKS
ELKINS         LGT RAIN  54  48  80 W13G38    29.68R
$$

WVZ052-210400-
Eastern Panhandle of West Virginia

CITY           SKY/WX    TMP DP  RH WIND       PRES   REMARKS
MARTINSBURG    CLOUDY    62  53  72 W8        29.58R
PETERSBURG     RAIN      60  49  66 W7        29.62R
$$


USA.gov is the U.S. government's official web portal to all federal, state and local government web resources and services.